Valparaiso, FL

9:43 PM CDT on April 29, 2017 (GMT -0500)
Eglin Air Force Base

Weather History for KVPS - February, 2013

Change the Weather History Date:

Wednesday, February 13, 2013

  Actual Average Record
Temperature  
Mean Temperature 58 °F -  
Max Temperature 69 °F 62 °F 77 °F (2017)
Min Temperature 48 °F 37 °F 29 °F (2015)
Degree Days  
Heating Degree Days 6    
Growing Degree Days 8 (Base 50)    
Moisture  
Dew Point 52 °F    
Average Humidity 80    
Maximum Humidity 95    
Minimum Humidity 48    
Precipitation  
Precipitation 0.09 in - - ()
Sea Level Pressure  
Sea Level Pressure 29.92 in    
Wind  
Wind Speed 10 mph (WNW)    
Max Wind Speed 15 mph    
Max Gust Speed 25 mph    
Visibility 8 miles    
Events Rain    
Averages and records for this station are not official NWS values.
T = Trace of Precipitation, MM = Missing Value Source: NWS Daily Summary

Daily Weather History Graph

Daily Weather History Graph

Search for Another Location

Airport or City:

Trip Planner

Search our weather history database for the weather conditions in past years. The results will help you decide how hot, cold, wet, or windy it might be!

Date:

Astronomy

Feb. 13, 2013 Rise Set
Actual Time 6:28 AM CST 5:32 PM CST
Civil Twilight 6:03 AM CST 5:57 PM CST
Nautical Twilight 5:35 AM CST 6:25 PM CST
Astronomical Twilight 5:07 AM CST 6:53 PM CST
Moon 8:16 AM CST (2/13) 9:13 PM CST (2/13)
Length of Visible Light 11h 54m
Length of Day
11h 04m
Waxing Crescent, 14% of the Moon is Illuminated
Feb 13
Waxing Crescent
Feb 17
First Quarter
Feb 25
Full
Mar 4
Last Quarter
Mar 11
New

Hourly Weather History & Observations

Time (CST) Temp. Dew Point Humidity Pressure Visibility Wind Dir Wind Speed Gust Speed Precip Events Conditions
12:23 AM 69.8 °F 68.0 °F 94% 29.80 in 6.0 mi SW 15.0 mph 21.9 mph N/A Rain Rain
12:55 AM 69.8 °F 68.4 °F 95% 29.82 in 6.0 mi West 5.8 mph 17.3 mph 0.02 in Rain Light Rain
1:28 AM 69.8 °F 68.0 °F 94% 29.80 in 5.0 mi SW 9.2 mph - N/A   Overcast
1:55 AM 69.8 °F 68.0 °F 94% 29.81 in 5.0 mi SW 6.9 mph - 0.01 in   Overcast
2:55 AM 68.4 °F 66.9 °F 95% 29.82 in 4.0 mi WSW 8.1 mph 18.4 mph N/A   Overcast
3:55 AM 68.4 °F 66.4 °F 93% 29.82 in 5.0 mi West 5.8 mph - N/A   Overcast
4:55 AM 67.5 °F 64.6 °F 90% 29.83 in 6.0 mi West 6.9 mph - N/A   Mostly Cloudy
5:55 AM 65.8 °F 63.7 °F 93% 29.86 in 10.0 mi WNW 10.4 mph - N/A   Mostly Cloudy
6:55 AM 61.0 °F 53.2 °F 76% 29.89 in 10.0 mi WNW 11.5 mph - N/A   Mostly Cloudy
7:55 AM 60.3 °F 52.3 °F 75% 29.89 in 10.0 mi NW 6.9 mph - N/A   Mostly Cloudy
8:55 AM 62.4 °F 48.0 °F 59% 29.91 in 10.0 mi NW 10.4 mph - N/A   Mostly Cloudy
9:55 AM 63.9 °F 44.6 °F 50% 29.92 in 10.0 mi WNW 11.5 mph - N/A   Mostly Cloudy
10:55 AM 66.6 °F 46.4 °F 48% 29.94 in 10.0 mi WNW 15.0 mph 25.3 mph N/A   Mostly Cloudy
11:55 AM 62.4 °F 45.0 °F 53% 29.92 in 10.0 mi NW 13.8 mph - N/A   Mostly Cloudy
12:55 PM 62.4 °F 45.9 °F 55% 29.92 in 10.0 mi WNW 13.8 mph - N/A   Overcast
1:55 PM 60.4 °F 47.3 °F 62% 29.91 in 10.0 mi NW 11.5 mph - N/A   Overcast
2:55 PM 57.2 °F 46.4 °F 67% 29.92 in 10.0 mi NNW 9.2 mph - N/A   Overcast
3:32 PM 55.4 °F 46.4 °F 72% 29.94 in 10.0 mi NW 11.5 mph - N/A   Overcast
3:55 PM 54.7 °F 46.2 °F 73% 29.95 in 10.0 mi NW 10.4 mph - N/A   Overcast
4:05 PM 55.4 °F 46.4 °F 72% 29.93 in 7.0 mi NW 10.4 mph - N/A Rain Light Rain
4:26 PM 53.6 °F 46.4 °F 77% 29.94 in 10.0 mi NW 11.5 mph - N/A   Light Drizzle
4:34 PM 53.6 °F 46.4 °F 77% 29.94 in 7.0 mi NW 10.4 mph - N/A Rain Light Rain
4:40 PM 51.8 °F 48.2 °F 88% 29.95 in 10.0 mi NNW 15.0 mph 18.4 mph N/A Rain Light Rain
4:55 PM 50.4 °F 46.0 °F 85% 29.97 in 7.0 mi NNW 11.5 mph - 0.00 in Rain Light Rain
5:37 PM 48.2 °F 44.6 °F 87% 29.97 in 7.0 mi NW 8.1 mph - N/A   Overcast
5:48 PM 48.2 °F 44.6 °F 87% 29.97 in 7.0 mi NW 8.1 mph - N/A Rain Light Rain
5:55 PM 48.6 °F 45.7 °F 90% 30.00 in 7.0 mi NNW 6.9 mph - 0.01 in Rain Light Rain
6:59 PM 48.2 °F 46.2 °F 93% 30.01 in 10.0 mi North 4.6 mph - 0.04 in Rain Light Rain
7:55 PM 48.4 °F 46.4 °F 93% 30.03 in 10.0 mi WNW 2.3 mph - 0.01 in   Overcast
8:55 PM 48.4 °F 46.4 °F 93% 30.01 in 10.0 mi NW 2.3 mph - N/A   Overcast
9:55 PM 48.4 °F 46.6 °F 93% 30.04 in 10.0 mi NNW 4.6 mph - N/A   Overcast
11:55 PM 48.4 °F 45.5 °F 90% 30.06 in 10.0 mi NNW 4.6 mph - N/A   Overcast